World > North America > United States > Florida

Naples, Florida Regional Weather

Lat: 26.14N, Lon: 81.8W
Wx Zone: FLZ069
Warning FLW WEATHER ALERT - (More Info. Click Here) Warning
Feedback

Naples, FL Regional Weather

Expires:201907212200;;423751
ASUS42 KTBW 212118
RWRFL 
FLORIDA REGIONAL WEATHER ROUNDUP
NATIONAL WEATHER SERVICE TAMPA BAY RUSKIN FL
500 PM EDT SUN JUL 21 2019

NOTE: "FAIR" INDICATES FEW OR NO CLOUDS BELOW 12,000 FEET WITH NO
SIGNIFICANT WEATHER AND/OR OBSTRUCTIONS TO VISIBILITY.


FLZ066-069-070-075>078-162-262-165-265-212200-
SOUTHWEST FLORIDA AND KEYS
  
CITY           SKY/WX    TMP DP  RH WIND       PRES   REMARKS
PUNTA GORDA    TSTM      75  73  93 S17       30.05R FOG              
FT MYERS       FAIR      81  70  69 NE20      30.03R                  
SOUTHWEST INTL TSTM      81  72  74 SE29G38   30.05R                  
NAPLES         MOSUNNY  N/A N/A N/A SW12      30.00S THUNDER          
MARCO ISLAND   TSTM      77  71  82 MISG      30.02R                  
IMMOKALEE      CLOUDY    79  73  83 S15G23    30.02R                  
MARATHON       FAIR      87  74  64 E12G21    30.00F HX  95           
KEY WEST NAS   FAIR      90  75  61 SE12      30.00F HX 100           
KEY WEST INTL  FAIR      88  76  67 SE13      30.00F HX  99           

STATION/POSITION SKY/WX   TEMP    WIND        PRES    WAVE   SWELL
                          AIR SEA DIR/SP/G            HT/PER HT/PER
                          (F)     (DEG/KT/KT) (MB)    (FT/S) (FT/S)
NAPLES                     88 88              1015.6F
26.0N   85.6W              84 86  100/  6/  6 1016.3F   2/ 4   2/ 4
DRY TORTUGAS               84     140/ 11/ 12 1015.8F
SAND KEY                   85     130/ 11/ 12 1014.6
SOMBRERO KEY               84     110/  8/ 12 1015.9
LONG KEY                   83                 1015.2

$$

SKY/WX - Weather  TMP - Temperature  DP - Dew Point  RH - Relative Humidity
WIND - Wind Direction/Speed PRES - Barometric Pressure VSB - Visibility
WCI - Wind Chill Index E13G22 Wind - East Wind 13 mph/Gusts of 22 mph